Misc. Local Product


063 
AXUS43 KLBF 251110
MISLBF
WESTERN AND NORTH CENTRAL NEBRASKA HOURLY WEATHER ROUNDUP
NATIONAL WEATHER SERVICE NORTH PLATTE NE
500 AM CST SUN FEB 25 2018
NOTE: "FAIR" INDICATES FEW OR NO CLOUDS BELOW 12,000 FEET WITH NO
SIGNIFICANT WEATHER AND/OR OBSTRUCTIONS TO VISIBILITY.
NOTE: STATIONS NOT REPORTING VARIABLES SUCH AS SKY/WEATHER OR 
PRESSURE ARE PROVIDED BY RAWS AND APRS NETWORKS AND ARE NOT UNDER 
NATIONAL WEATHER SERVICE QUALITY CONTROL. 
...OBSERVATIONS IN AND NEAR THE EASTERN PANHANDLE OF NEBRASKA...
  
CITY           SKY/WX    TMP DP  RH WIND       PRES   REMARKS
PINE RIDGE     PTCLDY   N/A N/A N/A MISG      29.79R                  
GORDON         FAIR      18   7  62 W8        29.76S WCI   7          
CHADRON        PTCLDY     1  -2  87 CALM      29.79S                  
ALLIANCE       CLOUDY    19  12  74 W9        29.77S WCI   8          
SIDNEY         PTCLDY    23   8  52 W13       29.82R WCI  11          
CRESCENT LAKE    N/A     24  12  60 W7G15       N/A  WCI  16          
$$
 
...OBSERVATIONS IN NORTHERN NEBRASKA AND FAR SOUTHERN SOUTH DAKOTA...
  
CITY           SKY/WX    TMP DP  RH WIND       PRES   REMARKS
WINNER         FAIR      25  11  55 W17       29.75R WCI  12          
VALENTINE      MOCLDY    17   7  64 W14       29.78R WCI   3          
AINSWORTH      PTCLDY    19  11  70 W13       29.78R WCI   7          
O'NEILL        CLEAR     18  10  70 W10       29.79R WCI   6          
THEDFORD       MOCLDY    23  14  68 W12       29.80S WCI  12          
BROKEN BOW     CLEAR     17   6  62 W12       29.83R WCI   4          
ORD            CLEAR     15   8  73 CALM      29.83S                  
ALBION         CLEAR     19  10  70 NW5       29.83S WCI  12          
VALENTINE NWR    N/A     20   8  60 W10         N/A  WCI   9          
HALSEY           N/A     23  11  59 W9          N/A  WCI  13          
BUTTE            N/A     18  11  74 W8G16       N/A  WCI   8          
CHAMBERS         N/A     17   5  60 W3          N/A                   
EWING            N/A     16   9  72 SW7         N/A  WCI   6          
$$
...OBSERVATIONS IN SOUTHWEST NEBRASKA AND FAR NORTHEAST COLORADO...
  
CITY           SKY/WX    TMP DP  RH WIND       PRES   REMARKS
WRAY           FAIR      23  14  68 W8        29.86S WCI  14          
HOLYOKE        FAIR      25  14  63 SW9       29.85R WCI  15          
IMPERIAL       MOCLDY    27  14  58 SW13      29.86S WCI  16          
OGALLALA       PTCLDY    26  13  58 SW6       29.83R WCI  20          
NORTH PLATTE   CLEAR      9   4  80 SW3       29.86R                  
MCCOOK         CLOUDY    24  16  71 SW5       29.89S WCI  18          
LEXINGTON      CLEAR     17  11  79 NW3       29.88R                  
STAPLETON        N/A     17  11  75 CALM        N/A                   
$$
 
...OBSERVATIONS IN CENTRAL LINCOLN COUNTY AREA...
  
CITY           SKY/WX    TMP DP  RH WIND       PRES   REMARKS
N.P. AIRPORT   CLEAR      9   4  80 SW3       29.86R                  
N.P. DOWNTOWN    N/A      9   7  92 CALM        N/A                   
N.P. SOUTHEAST   N/A     14   9  79 CALM        N/A                   
N.P. HILLCREST   N/A     16  11  80 CALM        N/A                   
$$
 
...OBSERVATIONS ACROSS THE ROCKIES AND WESTERN HIGH PLAINS...
  
CITY           SKY/WX    TMP DP  RH WIND       PRES   REMARKS
RAPID CITY     CLEAR     13   2  61 CALM      29.72R                  
SCOTTSBLUFF    MOCLDY    25  12  58 W10       29.80S WCI  15          
CHEYENNE       PTCLDY    16   3  56 W8        29.75S WCI   5          
DENVER         PTCLDY    17   4  56 SW8       29.81S WCI   7          
BERTHOUD PASS  SNOW      -6 -17  59 NW28G41   29.59R VSB 1/2 WCI -33  
COPPER MTN     LGT SNOW   1  -6  71 W14G20    29.66S WCI -17          
MONARCH PASS   CLOUDY     1  -4  78 W35G41    29.77R WCI -25          
ASPEN          LGT SNOW  10   6  84 SW5       29.85S FOG     WCI   2  
LARAMIE        PTCLDY    14   2  58 N13       29.73F WCI   0          
CASPER         PTCLDY    15   6  67 SW16      29.77S WCI  -1          
$$
 
...OBSERVATIONS ACROSS THE NORTHERN PLAINS...
  
CITY           SKY/WX    TMP DP  RH WIND       PRES   REMARKS
BISMARCK       CLOUDY    23  19  85 W17       29.59S WCI   9          
FARGO          MOCLDY     8   6  92 W13       29.52R WCI  -8          
PIERRE         CLEAR     18  10  71 W17       29.73R WCI   3          
SIOUX FALLS    CLOUDY    13   7  77 W9        29.71R WCI   1          
$$
 
...OBSERVATIONS ACROSS THE CENTRAL AND SOUTHERN PLAINS...
  
CITY           SKY/WX    TMP DP  RH WIND       PRES   REMARKS
OMAHA          CLEAR     22  15  75 S3        29.88R                  
GRAND ISLAND   CLEAR     22  13  68 W13       29.88R WCI  10          
KANSAS CITY    CLEAR     25  19  78 SW8       29.97R WCI  16          
WICHITA        CLEAR     23  22  96 CALM      29.98S                  
DODGE CITY     CLOUDY    24   7  48 E6        29.93F WCI  17          
OKLAHOMA CITY  CLEAR     30  28  92 S5        29.99R WCI  25          
DALLAS         PTCLDY    42  39  89 N3        30.01R                  
AMARILLO       CLEAR     38   3  23 W13       29.92S WCI  30          
$$